Weather History for Jackson, MS

Change the Weather History Date:

Saturday, May 3, 2014

  Actual Average Record
Temperature  
Mean Temperature 65 °F 69 °F  
Max Temperature 82 °F 80 °F 92 °F (1943)
Min Temperature 48 °F 58 °F 40 °F (2013)
Degree Days  
Heating Degree Days 0 1  
Month to date heating degree days 11 3  
Since 1 July heating degree days 2735 2382  
Cooling Degree Days 0 5  
Month to date cooling degree days 0 14  
Year to date cooling degree days 89 132  
Growing Degree Days 15 (Base 50)    
Moisture  
Dew Point 46 °F    
Average Humidity 55    
Maximum Humidity 86    
Minimum Humidity 23    
Precipitation  
Precipitation 0.00 in 0.14 in 2.40 in (1916)
Month to date precipitation 0.00 0.42  
Year to date precipitation 25.22 20.15  
Sea Level Pressure  
Sea Level Pressure 30.03 in    
Wind  
Wind Speed 4 mph (West)    
Max Wind Speed 14 mph    
Max Gust Speed 18 mph    
Visibility 10 miles    
Events      
T = Trace of Precipitation, MM = Missing Value Source: NWS Daily Summary

Daily Weather History Graph

Daily Weather History Graph

Search for Another Location

Airport:

Trip Planner

Search our weather history database for the weather conditions in past years. The results will help you decide how hot, cold, wet, or windy it might be!

Date:

Astronomy

May. 03, 2014 Rise Set
Actual Time 6:11 AM CDT 7:42 PM CDT
Civil Twilight 5:45 AM CDT 8:09 PM CDT
Nautical Twilight 5:14 AM CDT 8:40 PM CDT
Astronomical Twilight 4:41 AM CDT 9:13 PM CDT
Moon 9:44 AM CDT (5/3) 11:47 PM CDT (5/3)
Length of Visible Light 14h 23m
Length of Day
13h 30m
Waxing Crescent, 20% of the Moon is Illuminated
May 3
Waxing Crescent
May 6
First Quarter
May 14
Full
May 21
Last Quarter
May 28
New

Hourly Weather History & Observations

Time (CDT) Temp. Dew Point Humidity Pressure Visibility Wind Dir Wind Speed Gust Speed Precip Events Conditions
12:54 AM 51.1 °F 46.0 °F 83% 30.01 in 10.0 mi Calm Calm - N/A   Clear
1:54 AM 51.1 °F 46.0 °F 83% 29.99 in 10.0 mi Calm Calm - N/A   Clear
2:54 AM 50.0 °F 46.0 °F 86% 30.00 in 10.0 mi Calm Calm - N/A   Clear
3:54 AM 51.1 °F 44.1 °F 77% 30.01 in 10.0 mi Calm Calm - N/A   Clear
4:54 AM 48.2 °F 44.6 °F 87% 30.02 in 10.0 mi Calm Calm - N/A   Clear
5:54 AM 50.0 °F 44.1 °F 80% 30.02 in 10.0 mi SE 3.5 mph - N/A   Clear
6:54 AM 50.0 °F 46.0 °F 86% 30.04 in 10.0 mi Calm Calm - N/A   Clear
7:54 AM 57.9 °F 48.0 °F 70% 30.06 in 10.0 mi Calm Calm - N/A   Clear
8:54 AM 64.0 °F 48.9 °F 58% 30.05 in 10.0 mi SW 8.1 mph - N/A   Clear
9:54 AM 71.1 °F 48.9 °F 45% 30.05 in 10.0 mi West 6.9 mph - N/A   Clear
10:54 AM 75.9 °F 46.0 °F 35% 30.05 in 10.0 mi West 10.4 mph 16.1 mph N/A   Clear
11:54 AM 78.1 °F 41.0 °F 27% 30.05 in 10.0 mi West 13.8 mph 18.4 mph N/A   Clear
12:54 PM 80.1 °F 39.9 °F 24% 30.04 in 10.0 mi WNW 11.5 mph 17.3 mph N/A   Clear
1:54 PM 80.1 °F 42.1 °F 26% 30.04 in 10.0 mi West 9.2 mph - N/A   Clear
2:54 PM 80.6 °F 41.0 °F 24% 30.03 in 10.0 mi NW 11.5 mph - N/A   Clear
3:54 PM 82.0 °F 42.1 °F 24% 30.01 in 10.0 mi NW 5.8 mph - N/A   Clear
4:54 PM 81.0 °F 42.1 °F 25% 30.01 in 10.0 mi Calm Calm - N/A   Clear
5:54 PM 80.1 °F 42.1 °F 26% 30.02 in 10.0 mi West 5.8 mph - N/A   Clear
6:54 PM 79.0 °F 44.1 °F 29% 30.02 in 10.0 mi Calm Calm - N/A   Clear
7:54 PM 68.0 °F 51.1 °F 55% 30.04 in 10.0 mi Calm Calm - N/A   Clear
8:54 PM 62.1 °F 51.1 °F 67% 30.04 in 10.0 mi Calm Calm - N/A   Clear
9:54 PM 61.0 °F 50.0 °F 67% 30.07 in 10.0 mi Calm Calm - N/A   Clear
10:54 PM 57.9 °F 51.1 °F 78% 30.08 in 10.0 mi Calm Calm - N/A   Clear
11:54 PM 55.9 °F 50.0 °F 80% 30.08 in 10.0 mi Calm Calm - N/A   Clear